Weather History for KRYV - November, 2012

Change the Weather History Date:

Friday, November 30, 2012

  Actual Average Record
Temperature  
Mean Temperature 40 °F -  
Max Temperature 42 °F 38 °F 64 °F (1998)
Min Temperature 37 °F 24 °F -7 °F (1947)
Degree Days  
Heating Degree Days 26    
Moisture  
Dew Point 35 °F    
Average Humidity 85    
Maximum Humidity 90    
Minimum Humidity 78    
Precipitation  
Precipitation 0.00 in - - ()
Sea Level Pressure  
Sea Level Pressure 30.11 in    
Wind  
Wind Speed 8 mph (ENE)    
Max Wind Speed 14 mph    
Max Gust Speed 18 mph    
Visibility 6 miles    
Events      
Averages and records for this station are not official NWS values.
T = Trace of Precipitation, MM = Missing Value Source: NWS Daily Summary

Daily Weather History Graph

Daily Weather History Graph

Search for Another Location

Airport or City:

Trip Planner

Search our weather history database for the weather conditions in past years. The results will help you decide how hot, cold, wet, or windy it might be!

Date:

Astronomy

Nov. 30, 2012 Rise Set
Actual Time 7:06 AM CST 4:20 PM CST
Civil Twilight 6:34 AM CST 4:52 PM CST
Nautical Twilight 5:59 AM CST 5:28 PM CST
Astronomical Twilight 5:24 AM CST 6:02 PM CST
Moon 6:16 PM CST (11/30) 8:38 AM CST (11/30)
Length of Visible Light 10h 18m
Length of Day
9h 14m
Waning Gibbous, 96% of the Moon is Illuminated
Nov 30
Waning Gibbous
Dec 6
Last Quarter
Dec 13
New
Dec 19
First Quarter
Dec 28
Full

Hourly Weather History & Observations

Time (CST) Temp. Windchill Dew Point Humidity Pressure Visibility Wind Dir Wind Speed Gust Speed Precip Events Conditions
12:15 AM 38.8 °F 33.2 °F 35.2 °F 87% 30.08 in 5.0 mi ENE 8.1 mph - N/A   Overcast
12:35 AM 38.8 °F 33.2 °F 35.6 °F 88% 30.07 in 5.0 mi ENE 8.1 mph - N/A   Overcast
12:55 AM 39.2 °F 33.0 °F 36.0 °F 88% 30.07 in 5.0 mi ENE 9.2 mph - N/A   Overcast
1:15 AM 39.0 °F 34.0 °F 35.8 °F 88% 30.07 in 5.0 mi ENE 6.9 mph - N/A   Overcast
1:35 AM 39.2 °F 34.2 °F 36.0 °F 88% 30.08 in 5.0 mi NE 6.9 mph - N/A   Overcast
1:55 AM 39.2 °F 33.6 °F 36.1 °F 89% 30.09 in 5.0 mi NE 8.1 mph - N/A   Overcast
2:15 AM 39.2 °F 33.0 °F 36.5 °F 90% 30.09 in 5.0 mi NE 9.2 mph - N/A   Overcast
2:35 AM 39.2 °F 33.0 °F 36.5 °F 90% 30.08 in 5.0 mi NE 9.2 mph 16.1 mph N/A   Overcast
2:55 AM 38.7 °F 32.4 °F 36.0 °F 90% 30.07 in 5.0 mi ENE 9.2 mph - N/A   Overcast
3:15 AM 38.5 °F 32.1 °F 35.6 °F 89% 30.07 in 5.0 mi ENE 9.2 mph - N/A   Overcast
3:35 AM 38.5 °F 34.1 °F 35.6 °F 89% 30.08 in 5.0 mi NE 5.8 mph - N/A   Overcast
3:55 AM 38.5 °F 34.1 °F 35.6 °F 89% 30.08 in 5.0 mi NE 5.8 mph - N/A   Overcast
4:15 AM 38.3 °F 32.5 °F 35.4 °F 89% 30.07 in 5.0 mi ENE 8.1 mph - N/A   Overcast
4:35 AM 38.3 °F 31.9 °F 35.2 °F 89% 30.06 in 7.0 mi ENE 9.2 mph - N/A   Overcast
4:55 AM 38.3 °F 31.4 °F 35.1 °F 88% 30.06 in 7.0 mi ENE 10.4 mph - N/A   Overcast
5:15 AM 38.3 °F 31.9 °F 35.1 °F 88% 30.06 in 7.0 mi ENE 9.2 mph - N/A   Overcast
5:35 AM 38.3 °F 31.9 °F 35.4 °F 89% 30.06 in 7.0 mi NE 9.2 mph - N/A   Overcast
5:55 AM 38.3 °F 34.8 °F 35.6 °F 90% 30.07 in 7.0 mi NE 4.6 mph - N/A   Overcast
6:15 AM 38.5 °F 33.4 °F 35.8 °F 90% 30.07 in 7.0 mi NNE 6.9 mph - N/A   Overcast
6:35 AM 38.7 °F 35.2 °F 36.0 °F 90% 30.08 in 5.0 mi NE 4.6 mph - N/A   Overcast
6:55 AM 38.7 °F 33.6 °F 36.0 °F 90% 30.08 in 5.0 mi NNE 6.9 mph - N/A   Overcast
7:15 AM 38.8 °F 33.8 °F 36.1 °F 90% 30.09 in 5.0 mi NNE 6.9 mph - N/A   Overcast
7:35 AM 39.2 °F 34.2 °F 36.5 °F 90% 30.09 in 5.0 mi NNE 6.9 mph - N/A   Overcast
7:55 AM 39.2 °F 34.2 °F 36.5 °F 90% 30.09 in 4.0 mi NNE 6.9 mph - N/A   Overcast
8:15 AM 39.4 °F 34.5 °F 36.7 °F 90% 30.10 in 4.0 mi NNE 6.9 mph - N/A   Overcast
8:35 AM 40.3 °F 34.9 °F 37.4 °F 89% 30.09 in 4.0 mi NE 8.1 mph - N/A   Overcast
9:15 AM 41.7 °F 35.2 °F 37.9 °F 86% 30.09 in 5.0 mi ENE 11.5 mph 17.3 mph N/A   Overcast
9:35 AM 42.1 °F 35.7 °F 37.4 °F 83% 30.10 in 5.0 mi ENE 11.5 mph - N/A   Overcast
9:55 AM 42.1 °F 35.7 °F 37.4 °F 83% 30.11 in 4.0 mi East 11.5 mph 18.4 mph N/A   Haze
10:15 AM 42.3 °F 35.5 °F 37.0 °F 82% 30.11 in 5.0 mi East 12.7 mph - N/A   Haze
10:55 AM 42.1 °F 37.1 °F 36.9 °F 82% 30.12 in 5.0 mi ENE 8.1 mph - N/A   Haze
11:15 AM 42.1 °F 36.1 °F 36.7 °F 81% 30.11 in 5.0 mi ENE 10.4 mph - N/A   Haze
11:35 AM 42.6 °F 36.3 °F 36.7 °F 79% 30.11 in 5.0 mi East 11.5 mph - N/A   Haze
12:55 PM 41.9 °F 36.9 °F 35.8 °F 79% 30.11 in 7.0 mi ENE 8.1 mph - N/A   Overcast
1:15 PM 41.5 °F 35.4 °F 35.6 °F 79% 30.11 in 7.0 mi ENE 10.4 mph - N/A   Overcast
1:35 PM 41.4 °F 36.8 °F 35.2 °F 79% 30.11 in 7.0 mi ENE 6.9 mph - N/A   Overcast
1:55 PM 41.5 °F 34.6 °F 35.2 °F 78% 30.09 in 7.0 mi East 12.7 mph - N/A   Overcast
2:15 PM 41.7 °F 34.4 °F 35.2 °F 78% 30.08 in 7.0 mi ENE 13.8 mph 17.3 mph N/A   Overcast
2:35 PM 41.2 °F 36.0 °F 35.1 °F 79% 30.10 in 5.0 mi ENE 8.1 mph 11.5 mph N/A   Haze
2:55 PM 40.6 °F 33.8 °F 34.7 °F 79% 30.11 in 4.0 mi East 11.5 mph - N/A   Haze
3:15 PM 40.1 °F 34.7 °F 34.7 °F 81% 30.13 in 7.0 mi ENE 8.1 mph - N/A   Overcast
3:35 PM 39.7 °F 34.3 °F 34.7 °F 82% 30.15 in 7.0 mi NE 8.1 mph - N/A   Overcast
3:55 PM 39.2 °F 33.6 °F 34.7 °F 84% 30.15 in 5.0 mi ENE 8.1 mph - N/A   Overcast
4:15 PM 39.2 °F 33.6 °F 34.5 °F 83% 30.16 in 5.0 mi ENE 8.1 mph - N/A   Overcast
4:35 PM 38.8 °F 32.6 °F 34.3 °F 84% 30.15 in 7.0 mi NE 9.2 mph - N/A   Overcast
4:55 PM 38.5 °F 31.6 °F 34.3 °F 85% 30.14 in 7.0 mi ENE 10.4 mph - N/A   Overcast
5:15 PM 38.5 °F 33.4 °F 34.5 °F 86% 30.16 in 5.0 mi East 6.9 mph - N/A   Overcast
6:15 PM 38.3 °F 32.5 °F 34.2 °F 85% 30.17 in 7.0 mi East 8.1 mph - N/A   Overcast
6:35 PM 38.3 °F 32.5 °F 34.0 °F 84% 30.17 in 5.0 mi East 8.1 mph - N/A   Overcast
6:55 PM 38.1 °F 31.2 °F 33.8 °F 84% 30.16 in 5.0 mi East 10.4 mph - N/A   Overcast
7:15 PM 37.8 °F 31.8 °F 33.8 °F 86% 30.17 in 7.0 mi ENE 8.1 mph - N/A   Overcast
7:35 PM 37.6 °F 32.3 °F 33.8 °F 86% 30.17 in 7.0 mi ENE 6.9 mph - N/A   Overcast
7:55 PM 37.8 °F 31.8 °F 33.8 °F 86% 30.16 in 7.0 mi East 8.1 mph - N/A   Overcast
8:15 PM 37.9 °F 32.1 °F 33.8 °F 85% 30.14 in 7.0 mi East 8.1 mph - N/A   Overcast
8:35 PM 38.1 °F 35.7 °F 33.8 °F 84% 30.16 in 7.0 mi ESE 3.5 mph - N/A   Overcast
9:15 PM 38.3 °F 33.9 °F 34.0 °F 84% 30.15 in 7.0 mi East 5.8 mph - N/A   Overcast
9:35 PM 38.5 °F 35.0 °F 34.0 °F 84% 30.15 in 7.0 mi ESE 4.6 mph - N/A   Overcast
10:15 PM 38.5 °F 33.4 °F 33.8 °F 83% 30.15 in 7.0 mi SE 6.9 mph - N/A   Overcast
10:35 PM 38.7 °F 36.3 °F 33.8 °F 83% 30.15 in 7.0 mi ESE 3.5 mph - N/A   Overcast
11:15 PM 38.5 °F 36.1 °F 34.0 °F 84% 30.16 in 7.0 mi East 3.5 mph - N/A   Overcast
11:35 PM 38.5 °F 35.0 °F 33.8 °F 83% 30.16 in 7.0 mi ESE 4.6 mph - N/A   Overcast
11:55 PM 37.8 °F 33.3 °F 33.8 °F 86% 30.15 in 7.0 mi East 5.8 mph - N/A   Overcast